{"data":{"norad_id":38779,"epoch":"2026-09-20T03:37:48.337824Z","epoch_age_seconds":44458,"freshness":"FRESH","line1":"1 38779U 12051B   26263.15125391 -.00000170  00000+0  00000+0 0  9996","line2":"2 38779   0.0356 264.3465 0005391 210.2363  21.9511  1.00272862 51053","mean_motion":1.00272862,"eccentricity":0.0005391,"inclination_deg":0.0356,"raan_deg":264.3465,"arg_perigee_deg":210.2363,"mean_anomaly_deg":21.9511,"bstar":0,"rev_number":5105,"period_min":1436.0814793538,"perigee_km":35763.562197461,"apogee_km":35809.023885932,"semimajor_km":42164.430041697,"source":"CELESTRAK","updated_at":"2026-09-20T09:00:46.834243Z"}}